�������l�o���
Date,Time,MP-1(��Sv/h),MP-2(��Sv/h),MP-3(��Sv/h),MP-4(��Sv/h),MP-5(��Sv/h),MP-6(��Sv/h),MP-7(��Sv/h),MP-8(��Sv/h),����,����(m/s),���J
2014/11/02,00:00,1.980,3.530,3.883,3.522,3.677,1.392,1.947,2.170,�k��,2.1,�L
2014/11/02,00:10,1.975,3.513,3.870,3.508,3.670,1.395,1.942,2.170,�k��,1.7,�L
2014/11/02,00:20,1.975,3.512,3.870,3.505,3.663,1.392,1.940,2.167,��,2.7,�L
2014/11/02,00:30,1.972,3.518,3.882,3.510,3.665,1.390,1.938,2.165,��,2.1,�L
2014/11/02,00:40,1.975,3.522,3.885,3.508,3.663,1.390,1.940,2.165,�쐼,2.3,�L
2014/11/02,00:50,1.970,3.503,3.858,3.492,3.638,1.385,1.937,2.163,���쐼,3.4,�L
2014/11/02,01:00,1.965,3.497,3.853,3.487,3.635,1.382,1.930,2.160,���쐼,2.7,�L
2014/11/02,01:10,1.960,3.485,3.842,3.480,3.622,1.378,1.928,2.157,���쐼,4.2,�L
2014/11/02,01:20,1.958,3.472,3.832,3.473,3.602,1.373,1.922,2.153,�쐼,3.6,�L
2014/11/02,01:30,1.943,3.443,3.800,3.448,3.565,1.367,1.913,2.148,���쐼,2.7,�L
2014/11/02,01:40,1.943,3.443,3.810,3.452,3.558,1.363,1.912,2.145,��,2.7,�L
2014/11/02,01:50,1.940,3.445,3.808,3.453,3.548,1.362,1.912,2.145,���k��,2.2,�L
2014/11/02,02:00,1.943,3.455,3.818,3.457,3.558,1.367,1.912,2.145,���k��,2.5,�L
2014/11/02,02:10,1.953,3.477,3.835,3.472,3.578,1.370,1.915,2.150,�k��,3.1,�L
2014/11/02,02:20,1.965,3.498,3.853,3.482,3.603,1.375,1.918,2.150,�k��,3.2,�L
2014/11/02,02:30,1.968,3.513,3.863,3.488,3.620,1.378,1.918,2.153,�k��,3.7,�L
2014/11/02,02:40,1.973,3.525,3.877,3.497,3.627,1.375,1.913,2.153,�k��,4.0,�L
2014/11/02,02:50,1.972,3.525,3.865,3.492,3.605,1.370,1.912,2.148,���k��,3.4,�L
2014/11/02,03:00,1.973,3.503,3.850,3.483,3.590,1.370,1.907,2.148,�k��,2.4,�L
2014/11/02,03:10,1.962,3.492,3.840,3.473,3.573,1.365,1.907,2.145,���k��,1.3,�L
2014/11/02,03:20,1.953,3.462,3.813,3.452,3.545,1.357,1.902,2.138,�쐼,2.2,�L
2014/11/02,03:30,1.940,3.435,3.803,3.443,3.532,1.357,1.900,2.138,��,3.4,�L
2014/11/02,03:40,1.942,3.440,3.805,3.445,3.530,1.353,1.895,2.140,���k��,11.3,�L
2014/11/02,03:50,1.943,3.445,3.808,3.452,3.540,1.360,1.897,2.142,��,3.7,�L
2014/11/02,04:00,1.947,3.447,3.812,3.448,3.537,1.360,1.897,2.140,���k��,8.8,�L
2014/11/02,04:10,1.952,3.462,3.822,3.453,3.542,1.360,1.900,2.142,��쐼,0.7,�L
2014/11/02,04:20,1.957,3.480,3.838,3.470,3.563,1.365,1.902,2.145,���k��,1.6,��
2014/11/02,04:30,1.963,3.500,3.853,3.483,3.583,1.367,1.907,2.147,�k�k��,2.0,��
2014/11/02,04:40,1.968,3.515,3.860,3.488,3.595,1.368,1.908,2.152,�k�k��,2.1,��
2014/11/02,04:50,1.972,3.528,3.873,3.492,3.605,1.368,1.905,2.150,�k,1.7,��
2014/11/02,05:00,1.977,3.537,3.875,3.498,3.618,1.370,1.910,2.152,�k,1.3,��
2014/11/02,05:10,1.977,3.538,3.880,3.505,3.620,1.373,1.912,2.152,���k��,1.0,��
2014/11/02,05:20,1.978,3.545,3.887,3.505,3.622,1.373,1.913,2.155,���k��,0.9,��
2014/11/02,05:30,1.977,3.550,3.898,3.507,3.633,1.372,1.915,2.157,��,1.1,��
2014/11/02,05:40,1.980,3.552,3.897,3.508,3.637,1.373,1.917,2.153,�쐼,0.7,��
2014/11/02,05:50,1.978,3.558,3.897,3.512,3.642,1.377,1.913,2.155,��,0.5,��
2014/11/02,06:00,1.980,3.555,3.900,3.512,3.642,1.375,1.915,2.157,-,CALM,��
2014/11/02,06:10,1.985,3.558,3.907,3.515,3.652,1.375,1.918,2.158,���k��,0.6,��
2014/11/02,06:20,1.982,3.563,3.907,3.517,3.650,1.377,1.920,2.158,-,CALM,��
2014/11/02,06:30,1.982,3.563,3.907,3.517,3.648,1.378,1.918,2.160,���k��,0.6,��
2014/11/02,06:40,1.983,3.567,3.910,3.517,3.652,1.378,1.920,2.162,�k��,1.0,��
2014/11/02,06:50,1.983,3.572,3.912,3.517,3.653,1.378,1.923,2.162,�k,0.8,��
2014/11/02,07:00,1.983,3.570,3.915,3.515,3.658,1.378,1.922,2.160,�k�k��,1.3,��
2014/11/02,07:10,1.987,3.577,3.915,3.525,3.658,1.377,1.922,2.160,�k,1.8,��
2014/11/02,07:20,1.985,3.580,3.922,3.525,3.663,1.380,1.923,2.160,�k,1.4,��
2014/11/02,07:30,1.987,3.578,3.918,3.527,3.667,1.380,1.923,2.163,�k,2.0,��
2014/11/02,07:40,1.985,3.583,3.920,3.533,3.667,1.378,1.927,2.163,�k�k��,1.6,��
2014/11/02,07:50,1.988,3.580,3.920,3.528,3.670,1.382,1.925,2.163,�k�k��,1.4,��
2014/11/02,08:00,1.988,3.587,3.927,3.532,3.670,1.383,1.927,2.162,�k,0.7,��
2014/11/02,08:10,1.990,3.590,3.927,3.535,3.673,1.383,1.925,2.163,-,CALM,��
2014/11/02,08:20,1.993,3.592,3.932,3.532,3.677,1.385,1.927,2.163,�쐼,0.7,��
2014/11/02,08:30,1.988,3.592,3.932,3.535,3.682,1.385,1.930,2.165,��쐼,0.7,��
2014/11/02,08:40,1.992,3.592,3.927,3.537,3.680,1.385,1.933,2.165,�쐼,1.1,��
2014/11/02,08:50,1.995,3.598,3.937,3.538,3.680,1.385,1.932,2.165,-,CALM,��
2014/11/02,09:00,1.992,3.600,3.938,3.538,3.692,1.387,1.935,2.162,-,CALM,��
2014/11/02,09:10,1.993,3.603,3.945,3.537,3.697,1.385,1.935,2.167,�k��,0.6,��
2014/11/02,09:20,1.995,3.600,3.948,3.542,3.703,1.388,1.935,2.165,�쓌,0.9,��
2014/11/02,09:30,1.995,3.603,3.950,3.545,3.705,1.387,1.937,2.167,-,CALM,��
2014/11/02,09:40,1.995,3.610,3.953,3.538,3.710,1.388,1.938,2.165,��쓌,1.4,��
2014/11/02,09:50,1.995,3.610,3.953,3.543,3.707,1.388,1.937,2.165,��쓌,1.5,��
2014/11/02,10:00,1.993,3.617,3.958,3.543,3.717,1.390,1.938,2.170,��쓌,2.3,��
2014/11/02,10:10,1.993,3.613,3.958,3.548,3.722,1.392,1.942,2.168,��쓌,2.7,��
2014/11/02,10:20,1.995,3.620,3.967,3.548,3.720,1.392,1.942,2.167,��쓌,3.2,��
2014/11/02,10:30,1.998,3.617,3.965,3.548,3.720,1.390,1.942,2.167,��쓌,3.7,��
2014/11/02,10:40,1.997,3.625,3.970,3.547,3.727,1.393,1.942,2.172,��쓌,3.6,��
2014/11/02,10:50,2.000,3.627,3.968,3.553,3.730,1.390,1.940,2.172,��쓌,3.9,��
2014/11/02,11:00,1.998,3.625,3.972,3.555,3.732,1.388,1.938,2.172,��쓌,4.0,��
2014/11/02,11:10,1.998,3.630,3.973,3.557,3.735,1.392,1.943,2.173,��쓌,4.1,��
2014/11/02,11:20,2.002,3.632,3.970,3.555,3.740,1.393,1.947,2.175,��쓌,3.8,��
2014/11/02,11:30,2.002,3.633,3.978,3.555,3.742,1.393,1.945,2.172,��쓌,4.5,��
2014/11/02,11:40,1.998,3.637,3.980,3.558,3.745,1.395,1.945,2.172,��쓌,5.3,��
2014/11/02,11:50,2.000,3.633,3.980,3.560,3.742,1.393,1.947,2.170,��쓌,5.4,��
2014/11/02,12:00,2.000,3.637,3.983,3.560,3.743,1.395,1.948,2.170,��,5.3,��
2014/11/02,12:10,2.003,3.638,3.985,3.560,3.748,1.393,1.945,2.170,��,5.0,��
2014/11/02,12:20,2.007,3.640,3.987,3.562,3.747,1.398,1.948,2.172,��,5.0,��
2014/11/02,12:30,2.005,3.645,3.990,3.565,3.750,1.398,1.950,2.175,��,4.5,��
2014/11/02,12:40,2.003,3.645,3.987,3.562,3.747,1.398,1.952,2.173,��,5.0,��
2014/11/02,12:50,2.005,3.642,3.995,3.567,3.748,1.400,1.953,2.172,��,6.1,��
2014/11/02,13:00,2.007,3.645,3.993,3.567,3.755,1.402,1.953,2.175,��,8.2,��
2014/11/02,13:10,2.007,3.647,3.995,3.567,3.753,1.400,1.953,2.173,��쓌,7.7,��
2014/11/02,13:20,2.008,3.650,3.993,3.570,3.757,1.402,1.955,2.175,��,8.2,��
2014/11/02,13:30,2.008,3.652,3.998,3.568,3.758,1.400,1.953,2.173,��,8.0,��
2014/11/02,13:40,2.010,3.653,4.002,3.573,3.763,1.402,1.955,2.172,��,8.5,��
2014/11/02,13:50,2.012,3.655,4.002,3.570,3.763,1.403,1.957,2.177,��,8.2,��
2014/11/02,14:00,2.012,3.655,4.000,3.572,3.762,1.402,1.957,2.180,��,7.9,��
2014/11/02,14:10,2.012,3.657,4.000,3.573,3.762,1.403,1.957,2.178,��,7.5,��
2014/11/02,14:20,2.010,3.655,4.007,3.575,3.768,1.405,1.960,2.178,��,7.9,��
2014/11/02,14:30,2.008,3.657,4.003,3.575,3.767,1.405,1.958,2.178,��,6.7,��
2014/11/02,14:40,2.013,3.657,4.005,3.577,3.767,1.402,1.957,2.175,��,8.8,��
2014/11/02,14:50,2.013,3.655,4.003,3.577,3.772,1.405,1.957,2.177,��,8.8,��
2014/11/02,15:00,2.017,3.657,4.000,3.575,3.772,1.405,1.958,2.177,��,8.0,��
2014/11/02,15:10,2.015,3.655,4.007,3.575,3.768,1.407,1.960,2.178,��,7.2,��
2014/11/02,15:20,2.010,3.655,4.005,3.575,3.770,1.405,1.962,2.177,��,7.9,��
2014/11/02,15:30,2.008,3.657,4.003,3.575,3.767,1.403,1.962,2.177,��,7.4,��
2014/11/02,15:40,2.012,3.658,4.005,3.578,3.770,1.407,1.963,2.177,��,7.4,��
2014/11/02,15:50,2.013,3.657,4.007,3.578,3.773,1.405,1.962,2.180,��,6.4,��
2014/11/02,16:00,2.015,3.660,4.008,3.583,3.775,1.405,1.958,2.178,��,6.1,��
2014/11/02,16:10,2.012,3.658,4.008,3.582,3.773,1.407,1.962,2.178,��,5.2,��
2014/11/02,16:20,2.012,3.658,4.005,3.578,3.775,1.405,1.965,2.180,��,6.0,��
2014/11/02,16:30,2.013,3.660,4.005,3.578,3.772,1.408,1.962,2.182,��,6.4,��
2014/11/02,16:40,2.013,3.662,4.007,3.578,3.772,1.407,1.963,2.180,��,7.1,��
2014/11/02,16:50,2.017,3.660,4.008,3.580,3.772,1.402,1.962,2.180,��,8.5,��
2014/11/02,17:00,2.017,3.658,4.008,3.578,3.773,1.403,1.963,2.182,��,7.1,��
2014/11/02,17:10,2.010,3.662,4.010,3.582,3.770,1.405,1.962,2.178,��,5.6,��
2014/11/02,17:20,2.010,3.658,4.008,3.582,3.773,1.403,1.963,2.182,��,3.9,��
2014/11/02,17:30,2.015,3.660,4.002,3.577,3.772,1.405,1.965,2.180,��쐼,3.6,��
2014/11/02,17:40,2.015,3.658,4.003,3.575,3.772,1.405,1.965,2.180,��,4.6,��
2014/11/02,17:50,2.015,3.658,4.007,3.578,3.775,1.407,1.963,2.178,��,5.8,��
2014/11/02,18:00,2.013,3.662,4.005,3.580,3.773,1.407,1.963,2.182,��,5.0,��
2014/11/02,18:10,2.012,3.662,4.003,3.582,3.775,1.407,1.963,2.182,��,5.0,��
2014/11/02,18:20,2.013,3.658,4.007,3.585,3.775,1.403,1.963,2.178,��,4.4,��
2014/11/02,18:30,2.018,3.655,4.007,3.578,3.777,1.402,1.963,2.178,��쐼,2.6,��
2014/11/02,18:40,2.015,3.660,4.005,3.583,3.777,1.407,1.962,2.182,��,3.7,��
2014/11/02,18:50,2.013,3.663,4.010,3.582,3.777,1.407,1.965,2.180,��,4.4,��
2014/11/02,19:00,2.015,3.660,4.008,3.582,3.778,1.407,1.962,2.183,��,4.9,��
2014/11/02,19:10,2.017,3.658,4.007,3.582,3.775,1.407,1.963,2.182,��,5.0,��
2014/11/02,19:20,2.013,3.658,4.003,3.583,3.777,1.405,1.963,2.182,��,4.0,��
2014/11/02,19:30,2.015,3.660,4.008,3.583,3.775,1.407,1.967,2.182,��,3.3,��
2014/11/02,19:40,2.015,3.662,4.008,3.583,3.773,1.407,1.963,2.182,��,2.3,��
2014/11/02,19:50,2.015,3.660,4.008,3.582,3.773,1.405,1.967,2.180,��,2.3,��
2014/11/02,20:00,2.017,3.660,4.008,3.580,3.773,1.407,1.962,2.178,��쐼,1.5,��
2014/11/02,20:10,2.017,3.662,4.008,3.583,3.773,1.407,1.963,2.183,���쐼,1.4,��
2014/11/02,20:20,2.017,3.663,4.008,3.582,3.780,1.405,1.962,2.178,��,1.5,��
2014/11/02,20:30,2.015,3.658,4.007,3.580,3.775,1.403,1.965,2.180,�k��,1.6,��
2014/11/02,20:40,2.018,3.665,4.005,3.583,3.778,1.407,1.963,2.182,�k��,1.6,��
2014/11/02,20:50,2.013,3.665,4.007,3.583,3.780,1.403,1.968,2.182,���k��,1.8,��
2014/11/02,21:00,2.013,3.663,4.010,3.583,3.777,1.407,1.965,2.180,���k��,3.0,��
2014/11/02,21:10,2.013,3.662,4.012,3.585,3.775,1.405,1.967,2.183,���k��,3.8,��
2014/11/02,21:20,2.015,3.662,4.008,3.583,3.782,1.408,1.965,2.178,���k��,3.7,��
2014/11/02,21:30,2.015,3.660,4.013,3.588,3.782,1.410,1.968,2.182,���k��,3.7,��
2014/11/02,21:40,2.017,3.662,4.012,3.587,3.778,1.410,1.968,2.182,���k��,2.8,��
2014/11/02,21:50,2.020,3.663,4.015,3.585,3.777,1.408,1.965,2.183,���k��,5.0,��
2014/11/02,22:00,2.022,3.662,4.013,3.588,3.775,1.407,1.967,2.183,���k��,4.9,��
2014/11/02,22:10,2.018,3.665,4.012,3.588,3.773,1.405,1.967,2.183,���k��,7.1,��
2014/11/02,22:20,2.020,3.663,4.013,3.588,3.780,1.408,1.968,2.182,���k��,7.4,��
2014/11/02,22:30,2.018,3.672,4.015,3.597,3.777,1.408,1.965,2.183,���k��,4.2,��
2014/11/02,22:40,2.020,3.665,4.015,3.593,3.775,1.408,1.967,2.183,���k��,3.9,��
2014/11/02,22:50,2.020,3.670,4.015,3.590,3.778,1.410,1.967,2.182,���k��,3.6,��
2014/11/02,23:00,2.018,3.663,4.013,3.593,3.777,1.410,1.967,2.185,���k��,3.0,��
2014/11/02,23:10,2.020,3.665,4.010,3.595,3.777,1.408,1.967,2.182,�k��,2.3,��
2014/11/02,23:20,2.020,3.663,4.017,3.597,3.780,1.410,1.967,2.183,���k��,1.1,��
2014/11/02,23:30,2.020,3.667,4.015,3.595,3.785,1.412,1.968,2.183,�k��,2.9,��
2014/11/02,23:40,2.020,3.663,4.015,3.595,3.785,1.410,1.968,2.178,�k�k��,2.6,��
2014/11/02,23:50,2.022,3.665,4.020,3.592,3.787,1.408,1.968,2.185,-,CALM,��
